General José María Yáñez International Airport
MMGM : now visible

Airfield :











YOU CAN JOIN US ON...

 
LOGIN :

Register | Disclaimer

   EN    FR    IT 

 









Legend :    VFR   Marginal VFR   IFR   Intensive IFR   Very Intensive IFR
Visi :
Ceiling :
>= 8 km
>= 3000ft
5 to 8 km
1000 to 3000 ft
1500m to 5 km
500 to 1000 ft
800 to 1500m
200 to 500 ft
< 800m
< 200 ft
Symbols :   Thunderstorms  Fog  Heavy snow  Heavy precipitations  Wind > 20 kt






- Airport Elevation : 59 ft
- IATA code : GYM


MMGM - General José María Yáñez International

CURRENT METAR :
  • 180140Z 20015KT 10SM SKC 34/24 A2952

EXPIRED METARs :
  • 180040Z 22015KT 10SM SKC 34/24 A2953

TAF TAF MMGM
Valid from the 17 at 18:00 until the 18 at 18:00 UTC


171702Z 1718/1818 27015KT P6SM SCT140
BECMG 1802/1803 17005KT SKC
FM181700 26012KT P6SM SKC
MMFR FIR / North America



MET'MAP, your aeronautical weather chart ! - Copyright ORBIFLY December 2007 - Disclaimer

ORBIFLY MET'MAP TEAM :

Programming & Development : Alexandra Zaïnal
Concept & original design : Baudouin d'Aumeries
Assistance for programming : Marc-Olivier Méhu
Technical & hardware support : Manuel Goepfert

Contact : metmap@orbifly.com




SOURCES & CREDITS :

   NOAA       Earth
Advisory